Weather in Prokhladnoye

Russia / Kaliningrad Oblast     55°09′32″N   21°19′13″E
temp.,
°C
wind,
m/s
gust,
m/s
humid.,
%
clouds,
%
prec.,
mm/h
press.,
hPa
HPBL,
m
12 april, mon
mon1223:00+10se71177100 0.0 1016123
02:00+9se697999 0.0 101695
05:00+9sse71080100 0.1 1016117
08:00+8se61090100 0.3 1016119
11:00+8sse5788100 0.3 1017110
14:00+6w2494100 0.4 101890
17:00+4nw71095100 0.3 1019388
20:00+4nw81092100 1.8 1020543
13 april, tue
tue1323:00+3wnw8997100 0.9 1022561
02:00+4w578799 1.1 1022310
05:00+4wnw61082100 0.0 1023336
08:00+4wnw5782100 0.0 1024276
11:00+4w4680100 0.0 1025317
14:00+4w568298 0.0 1026429
17:00+4wnw4682100 0.0 1025420
20:00+4wnw3586100 0.0 1025353
14 april, wed
wed1423:00+4w3487100 0.0 1025281
02:00+4wnw3585100 0.0 1023226
05:00+4wnw3385100 0.0 1023117
08:00+4nw238399 0.0 1023132
11:00+5nw3479100 0.0 1023269
14:00+5nw5679100 0.0 1023295
17:00+5nnw81182100 0.0 1022275
20:00+6n91273100 0.0 1022213
15 april, thu
thu1523:00+5nne6977100 0.0 1023219
02:00+4nne61074100 0.0 1023414
05:00+4nne71174100 0.0 1022425
08:00+4nne71373100 0.0 1022522
11:00+6ne71165100 0.0 1022386
14:00+8ene71069100 0.0 1022232
17:00+7ne71167100 0.0 1022232
20:00+7ne696999 0.0 1022187
16 april, fri
fri1623:00+6ne71166100 0.0 1023250
02:00+6ne71169100 0.0 1023254
05:00+5ne7117179 0.0 1023346
08:00+5ne7117186 0.0 1024440
11:00+8ne696698 0.0 1024216
14:00+9ne676394 0.0 1024247
17:00+10ene695926 0.0 1024265
20:00+9ene5770100 0.0 1026155